Tracking 31027 objects as of 19-Jul-2025
HD Live streaming from Space Station
objects crossing your sky now

COSMOS 2535 DEB

Track COSMOS 2535 DEB now!
10-day predictions


NORAD ID: 44641
Int'l Code: 2019-039M
Perigee: 503.5 km
Apogee: 532.6 km
Inclination: 97.6 °
Period: 94.8 minutes
Semi major axis: 6889 km
RCS: Unknown
Launch date: July 10, 2019
Source: Commonwealth of Independent States (former USSR) (CIS)
Launch site: PLESETSK MISSILE AND SPACE COMPLEX (PKMTR)

Note: This is SATELLITE DEBRIS
Your satellite tracking list
ATLAS 2A CENTAUR R/B
Track 1 satellite(s)




NASA's NSSDC Master Catalog

Two Line Element Set (TLE):
1 44641U 19039M   25199.14441898  .00010447  00000-0  50926-3 0  9997
2 44641  97.5980 264.1011 0021142  64.4519 295.8898 15.18321450316215
Source of the keplerian elements: AFSPC